owner,sensor,date,latitude,longitude,relative_humidity,qcFlag 
DISL,ioos:station:DISL:BSCA:1,2015-06-01T00:00:00Z,30.3288,-87.8293,74.53,1111122 
DISL,ioos:station:DISL:BSCA:1,2015-06-01T00:30:00Z,30.3288,-87.8293,78.29,1111122 
DISL,ioos:station:DISL:BSCA:1,2015-06-01T01:00:00Z,30.3288,-87.8293,75.49,1111122 
DISL,ioos:station:DISL:BSCA:1,2015-06-01T01:30:00Z,30.3288,-87.8293,75.38,1111122 
DISL,ioos:station:DISL:BSCA:1,2015-06-01T02:00:00Z,30.3288,-87.8293,72.35,1111122 
DISL,ioos:station:DISL:BSCA:1,2015-06-01T02:30:00Z,30.3288,-87.8293,74.11,1111122 
DISL,ioos:station:DISL:BSCA:1,2015-06-01T03:00:00Z,30.3288,-87.8293,72.32,1111122 
DISL,ioos:station:DISL:BSCA:1,2015-06-01T03:30:00Z,30.3288,-87.8293,73.03,1111122 
DISL,ioos:station:DISL:BSCA:1,2015-06-01T04:00:00Z,30.3288,-87.8293,73.67,1111122 
DISL,ioos:station:DISL:BSCA:1,2015-06-01T04:30:00Z,30.3288,-87.8293,76.28,1111122 
DISL,ioos:station:DISL:BSCA:1,2015-06-01T05:00:00Z,30.3288,-87.8293,83.9,1111122 
DISL,ioos:station:DISL:BSCA:1,2015-06-01T05:30:00Z,30.3288,-87.8293,88.8,1111122 
DISL,ioos:station:DISL:BSCA:1,2015-06-01T06:00:00Z,30.3288,-87.8293,88.6,1111122 
DISL,ioos:station:DISL:BSCA:1,2015-06-01T06:30:00Z,30.3288,-87.8293,87.0,1111122 
DISL,ioos:station:DISL:BSCA:1,2015-06-01T07:00:00Z,30.3288,-87.8293,87.6,1111122 
DISL,ioos:station:DISL:BSCA:1,2015-06-01T07:30:00Z,30.3288,-87.8293,88.2,1111122 
DISL,ioos:station:DISL:BSCA:1,2015-06-01T08:00:00Z,30.3288,-87.8293,89.4,1111122 
DISL,ioos:station:DISL:BSCA:1,2015-06-01T08:30:00Z,30.3288,-87.8293,90.6,1111122 
DISL,ioos:station:DISL:BSCA:1,2015-06-01T09:00:00Z,30.3288,-87.8293,92.9,1111122 
DISL,ioos:station:DISL:BSCA:1,2015-06-01T09:30:00Z,30.3288,-87.8293,92.0,1111122 
DISL,ioos:station:DISL:BSCA:1,2015-06-01T10:00:00Z,30.3288,-87.8293,91.7,1111122 
DISL,ioos:station:DISL:BSCA:1,2015-06-01T10:30:00Z,30.3288,-87.8293,92.3,1111122 
DISL,ioos:station:DISL:BSCA:1,2015-06-01T11:00:00Z,30.3288,-87.8293,94.4,1111122 
DISL,ioos:station:DISL:BSCA:1,2015-06-01T11:30:00Z,30.3288,-87.8293,92.9,1111122 
DISL,ioos:station:DISL:BSCA:1,2015-06-01T12:00:00Z,30.3288,-87.8293,95.2,1111122 
DISL,ioos:station:DISL:BSCA:1,2015-06-01T12:30:00Z,30.3288,-87.8293,95.6,1111122 
DISL,ioos:station:DISL:BSCA:1,2015-06-01T13:00:00Z,30.3288,-87.8293,95.0,1111122 
DISL,ioos:station:DISL:BSCA:1,2015-06-01T13:30:00Z,30.3288,-87.8293,94.0,1111122 
DISL,ioos:station:DISL:BSCA:1,2015-06-01T14:00:00Z,30.3288,-87.8293,91.0,1111122 
DISL,ioos:station:DISL:BSCA:1,2015-06-01T14:30:00Z,30.3288,-87.8293,79.88,1111122 
DISL,ioos:station:DISL:BSCA:1,2015-06-01T15:00:00Z,30.3288,-87.8293,82.6,1111122 
DISL,ioos:station:DISL:BSCA:1,2015-06-01T15:30:00Z,30.3288,-87.8293,80.1,1111122 
DISL,ioos:station:DISL:BSCA:1,2015-06-01T16:00:00Z,30.3288,-87.8293,78.5,1111122 
DISL,ioos:station:DISL:BSCA:1,2015-06-01T16:30:00Z,30.3288,-87.8293,77.72,1111122 
DISL,ioos:station:DISL:BSCA:1,2015-06-01T17:00:00Z,30.3288,-87.8293,74.81,1111122 
DISL,ioos:station:DISL:BSCA:1,2015-06-01T17:30:00Z,30.3288,-87.8293,76.63,1111122 
DISL,ioos:station:DISL:BSCA:1,2015-06-01T18:00:00Z,30.3288,-87.8293,74.7,1111122 
DISL,ioos:station:DISL:BSCA:1,2015-06-01T18:30:00Z,30.3288,-87.8293,72.98,1111122 
DISL,ioos:station:DISL:BSCA:1,2015-06-01T19:00:00Z,30.3288,-87.8293,74.74,1111122 
DISL,ioos:station:DISL:BSCA:1,2015-06-01T19:30:00Z,30.3288,-87.8293,72.2,1111122 
DISL,ioos:station:DISL:BSCA:1,2015-06-01T20:00:00Z,30.3288,-87.8293,76.53,1111122 
DISL,ioos:station:DISL:BSCA:1,2015-06-01T20:30:00Z,30.3288,-87.8293,83.4,1111122 
DISL,ioos:station:DISL:BSCA:1,2015-06-01T21:00:00Z,30.3288,-87.8293,79.84,1111122 
DISL,ioos:station:DISL:BSCA:1,2015-06-01T21:30:00Z,30.3288,-87.8293,83.6,1111122 
DISL,ioos:station:DISL:BSCA:1,2015-06-01T22:00:00Z,30.3288,-87.8293,82.5,1111122 
DISL,ioos:station:DISL:BSCA:1,2015-06-01T22:30:00Z,30.3288,-87.8293,81.6,1111122 
DISL,ioos:station:DISL:BSCA:1,2015-06-01T23:00:00Z,30.3288,-87.8293,77.82,1111122 
DISL,ioos:station:DISL:BSCA:1,2015-06-01T23:30:00Z,30.3288,-87.8293,76.33,1111122 
DISL,ioos:station:DISL:BSCA:1,2015-06-02T00:00:00Z,30.3288,-87.8293,77.55,1111122 
DISL,ioos:station:DISL:BSCA:1,2015-06-02T00:30:00Z,30.3288,-87.8293,77.82,1111122 
DISL,ioos:station:DISL:BSCA:1,2015-06-02T01:00:00Z,30.3288,-87.8293,81.6,1111122 
DISL,ioos:station:DISL:BSCA:1,2015-06-02T01:30:00Z,30.3288,-87.8293,81.2,1111122 
DISL,ioos:station:DISL:BSCA:1,2015-06-02T02:00:00Z,30.3288,-87.8293,83.3,1111122 
DISL,ioos:station:DISL:BSCA:1,2015-06-02T02:30:00Z,30.3288,-87.8293,83.8,1111122 
DISL,ioos:station:DISL:BSCA:1,2015-06-02T03:00:00Z,30.3288,-87.8293,84.3,1111122 
DISL,ioos:station:DISL:BSCA:1,2015-06-02T03:30:00Z,30.3288,-87.8293,83.2,1111122 
DISL,ioos:station:DISL:BSCA:1,2015-06-02T04:00:00Z,30.3288,-87.8293,82.6,1111122 
DISL,ioos:station:DISL:BSCA:1,2015-06-02T04:30:00Z,30.3288,-87.8293,82.3,1111122 
DISL,ioos:station:DISL:BSCA:1,2015-06-02T05:00:00Z,30.3288,-87.8293,80.6,1111122 
DISL,ioos:station:DISL:BSCA:1,2015-06-02T05:30:00Z,30.3288,-87.8293,79.34,1111122 
DISL,ioos:station:DISL:BSCA:1,2015-06-02T06:00:00Z,30.3288,-87.8293,73.95,1111122 
DISL,ioos:station:DISL:BSCA:1,2015-06-02T06:30:00Z,30.3288,-87.8293,77.2,1111122 
DISL,ioos:station:DISL:BSCA:1,2015-06-02T07:00:00Z,30.3288,-87.8293,74.49,1111122 
DISL,ioos:station:DISL:BSCA:1,2015-06-02T07:30:00Z,30.3288,-87.8293,83.9,1111122 
DISL,ioos:station:DISL:BSCA:1,2015-06-02T08:00:00Z,30.3288,-87.8293,93.8,1111122 
DISL,ioos:station:DISL:BSCA:1,2015-06-02T08:30:00Z,30.3288,-87.8293,96.2,1111122 
DISL,ioos:station:DISL:BSCA:1,2015-06-02T09:00:00Z,30.3288,-87.8293,98.0,1111122 
DISL,ioos:station:DISL:BSCA:1,2015-06-02T09:30:00Z,30.3288,-87.8293,96.8,1111122 
DISL,ioos:station:DISL:BSCA:1,2015-06-02T10:00:00Z,30.3288,-87.8293,98.2,1111122 
DISL,ioos:station:DISL:BSCA:1,2015-06-02T10:30:00Z,30.3288,-87.8293,97.2,1111122 
DISL,ioos:station:DISL:BSCA:1,2015-06-02T11:00:00Z,30.3288,-87.8293,97.0,1111122 
DISL,ioos:station:DISL:BSCA:1,2015-06-02T11:30:00Z,30.3288,-87.8293,95.4,1111122 
DISL,ioos:station:DISL:BSCA:1,2015-06-02T12:00:00Z,30.3288,-87.8293,93.4,1111122 
DISL,ioos:station:DISL:BSCA:1,2015-06-02T12:30:00Z,30.3288,-87.8293,95.9,1111122 
DISL,ioos:station:DISL:BSCA:1,2015-06-02T13:00:00Z,30.3288,-87.8293,95.5,1111122 
DISL,ioos:station:DISL:BSCA:1,2015-06-02T13:30:00Z,30.3288,-87.8293,94.5,1111122 
DISL,ioos:station:DISL:BSCA:1,2015-06-02T14:00:00Z,30.3288,-87.8293,90.8,1111122 
DISL,ioos:station:DISL:BSCA:1,2015-06-02T14:30:00Z,30.3288,-87.8293,87.4,1111122 
DISL,ioos:station:DISL:BSCA:1,2015-06-02T15:00:00Z,30.3288,-87.8293,85.8,1111122 
DISL,ioos:station:DISL:BSCA:1,2015-06-02T15:30:00Z,30.3288,-87.8293,82.0,1111122 
DISL,ioos:station:DISL:BSCA:1,2015-06-02T16:00:00Z,30.3288,-87.8293,82.2,1111122 
DISL,ioos:station:DISL:BSCA:1,2015-06-02T16:30:00Z,30.3288,-87.8293,83.9,1111122 
DISL,ioos:station:DISL:BSCA:1,2015-06-02T17:00:00Z,30.3288,-87.8293,78.29,1111122 
DISL,ioos:station:DISL:BSCA:1,2015-06-02T17:30:00Z,30.3288,-87.8293,80.5,1111122 
DISL,ioos:station:DISL:BSCA:1,2015-06-02T18:00:00Z,30.3288,-87.8293,78.78,1111122 
DISL,ioos:station:DISL:BSCA:1,2015-06-02T18:30:00Z,30.3288,-87.8293,77.66,1111122 
DISL,ioos:station:DISL:BSCA:1,2015-06-02T19:00:00Z,30.3288,-87.8293,74.16,1111122 
DISL,ioos:station:DISL:BSCA:1,2015-06-02T19:30:00Z,30.3288,-87.8293,73.38,1111122 
DISL,ioos:station:DISL:BSCA:1,2015-06-02T20:00:00Z,30.3288,-87.8293,69.52,1111122 
DISL,ioos:station:DISL:BSCA:1,2015-06-02T20:30:00Z,30.3288,-87.8293,65.43,1111122 
DISL,ioos:station:DISL:BSCA:1,2015-06-02T21:00:00Z,30.3288,-87.8293,70.0,1111122 
DISL,ioos:station:DISL:BSCA:1,2015-06-02T21:30:00Z,30.3288,-87.8293,74.87,1111122 
DISL,ioos:station:DISL:BSCA:1,2015-06-02T22:00:00Z,30.3288,-87.8293,75.04,1111122 
DISL,ioos:station:DISL:BSCA:1,2015-06-02T22:30:00Z,30.3288,-87.8293,75.35,1111122 
DISL,ioos:station:DISL:BSCA:1,2015-06-02T23:00:00Z,30.3288,-87.8293,73.11,1111122 
DISL,ioos:station:DISL:BSCA:1,2015-06-02T23:30:00Z,30.3288,-87.8293,77.28,1111122 
DISL,ioos:station:DISL:BSCA:1,2015-06-03T00:00:00Z,30.3288,-87.8293,78.8,1111122 
DISL,ioos:station:DISL:BSCA:1,2015-06-03T00:30:00Z,30.3288,-87.8293,78.47,1111122 
DISL,ioos:station:DISL:BSCA:1,2015-06-03T01:00:00Z,30.3288,-87.8293,81.1,1111122 
DISL,ioos:station:DISL:BSCA:1,2015-06-03T01:30:00Z,30.3288,-87.8293,78.55,1111122 
DISL,ioos:station:DISL:BSCA:1,2015-06-03T02:00:00Z,30.3288,-87.8293,76.89,1111122 
DISL,ioos:station:DISL:BSCA:1,2015-06-03T02:30:00Z,30.3288,-87.8293,77.84,1111122 
DISL,ioos:station:DISL:BSCA:1,2015-06-03T03:00:00Z,30.3288,-87.8293,79.3,1111122 
DISL,ioos:station:DISL:BSCA:1,2015-06-03T03:30:00Z,30.3288,-87.8293,77.88,1111122 
DISL,ioos:station:DISL:BSCA:1,2015-06-03T04:00:00Z,30.3288,-87.8293,80.5,1111122 
DISL,ioos:station:DISL:BSCA:1,2015-06-03T04:30:00Z,30.3288,-87.8293,73.34,1111122 
DISL,ioos:station:DISL:BSCA:1,2015-06-03T05:00:00Z,30.3288,-87.8293,75.24,1111122 
DISL,ioos:station:DISL:BSCA:1,2015-06-03T05:30:00Z,30.3288,-87.8293,90.8,1111122 
DISL,ioos:station:DISL:BSCA:1,2015-06-03T06:00:00Z,30.3288,-87.8293,91.6,1111122 
DISL,ioos:station:DISL:BSCA:1,2015-06-03T06:30:00Z,30.3288,-87.8293,93.3,1111122 
DISL,ioos:station:DISL:BSCA:1,2015-06-03T07:00:00Z,30.3288,-87.8293,95.9,1111122 
DISL,ioos:station:DISL:BSCA:1,2015-06-03T07:30:00Z,30.3288,-87.8293,95.4,1111122 
DISL,ioos:station:DISL:BSCA:1,2015-06-03T08:00:00Z,30.3288,-87.8293,96.7,1111122 
DISL,ioos:station:DISL:BSCA:1,2015-06-03T08:30:00Z,30.3288,-87.8293,95.7,1111122 
DISL,ioos:station:DISL:BSCA:1,2015-06-03T09:00:00Z,30.3288,-87.8293,93.8,1111122 
DISL,ioos:station:DISL:BSCA:1,2015-06-03T09:30:00Z,30.3288,-87.8293,94.6,1111122 
DISL,ioos:station:DISL:BSCA:1,2015-06-03T10:00:00Z,30.3288,-87.8293,96.2,1111122 
DISL,ioos:station:DISL:BSCA:1,2015-06-03T10:30:00Z,30.3288,-87.8293,94.8,1111122 
DISL,ioos:station:DISL:BSCA:1,2015-06-03T11:00:00Z,30.3288,-87.8293,96.5,1111122 
DISL,ioos:station:DISL:BSCA:1,2015-06-03T11:30:00Z,30.3288,-87.8293,96.3,1111122 
DISL,ioos:station:DISL:BSCA:1,2015-06-03T12:00:00Z,30.3288,-87.8293,95.0,1111122 
DISL,ioos:station:DISL:BSCA:1,2015-06-03T12:30:00Z,30.3288,-87.8293,93.1,1111122 
DISL,ioos:station:DISL:BSCA:1,2015-06-03T13:00:00Z,30.3288,-87.8293,89.4,1111122 
DISL,ioos:station:DISL:BSCA:1,2015-06-03T13:30:00Z,30.3288,-87.8293,86.4,1111122 
DISL,ioos:station:DISL:BSCA:1,2015-06-03T14:00:00Z,30.3288,-87.8293,84.3,1111122 
DISL,ioos:station:DISL:BSCA:1,2015-06-03T14:30:00Z,30.3288,-87.8293,79.23,1111122 
DISL,ioos:station:DISL:BSCA:1,2015-06-03T15:00:00Z,30.3288,-87.8293,75.89,1111122 
DISL,ioos:station:DISL:BSCA:1,2015-06-03T15:30:00Z,30.3288,-87.8293,71.62,1111122 
DISL,ioos:station:DISL:BSCA:1,2015-06-03T16:00:00Z,30.3288,-87.8293,71.49,1111122 
DISL,ioos:station:DISL:BSCA:1,2015-06-03T16:30:00Z,30.3288,-87.8293,70.78,1111122 
DISL,ioos:station:DISL:BSCA:1,2015-06-03T17:00:00Z,30.3288,-87.8293,71.11,1111122 
DISL,ioos:station:DISL:BSCA:1,2015-06-03T17:30:00Z,30.3288,-87.8293,70.0,1111122 
DISL,ioos:station:DISL:BSCA:1,2015-06-03T18:00:00Z,30.3288,-87.8293,70.44,1111122 
DISL,ioos:station:DISL:BSCA:1,2015-06-03T18:30:00Z,30.3288,-87.8293,74.13,1111122 
DISL,ioos:station:DISL:BSCA:1,2015-06-03T19:00:00Z,30.3288,-87.8293,72.74,1111122 
DISL,ioos:station:DISL:BSCA:1,2015-06-03T19:30:00Z,30.3288,-87.8293,72.37,1111122 
DISL,ioos:station:DISL:BSCA:1,2015-06-03T20:00:00Z,30.3288,-87.8293,72.54,1111122 
DISL,ioos:station:DISL:BSCA:1,2015-06-03T20:30:00Z,30.3288,-87.8293,71.42,1111122 
DISL,ioos:station:DISL:BSCA:1,2015-06-03T21:00:00Z,30.3288,-87.8293,76.36,1111122 
DISL,ioos:station:DISL:BSCA:1,2015-06-03T21:30:00Z,30.3288,-87.8293,75.55,1111122 
DISL,ioos:station:DISL:BSCA:1,2015-06-03T22:00:00Z,30.3288,-87.8293,71.93,1111122 
DISL,ioos:station:DISL:BSCA:1,2015-06-03T22:30:00Z,30.3288,-87.8293,75.35,1111122 
DISL,ioos:station:DISL:BSCA:1,2015-06-03T23:00:00Z,30.3288,-87.8293,71.79,1111122 
DISL,ioos:station:DISL:BSCA:1,2015-06-03T23:30:00Z,30.3288,-87.8293,70.74,1111122 
DISL,ioos:station:DISL:BSCA:1,2015-06-04T00:00:00Z,30.3288,-87.8293,72.4,1111122 
DISL,ioos:station:DISL:BSCA:1,2015-06-04T00:30:00Z,30.3288,-87.8293,68.71,1111122 
DISL,ioos:station:DISL:BSCA:1,2015-06-04T01:00:00Z,30.3288,-87.8293,68.98,1111122 
DISL,ioos:station:DISL:BSCA:1,2015-06-04T01:30:00Z,30.3288,-87.8293,68.57,1111122 
DISL,ioos:station:DISL:BSCA:1,2015-06-04T02:00:00Z,30.3288,-87.8293,72.47,1111122 
DISL,ioos:station:DISL:BSCA:1,2015-06-04T02:30:00Z,30.3288,-87.8293,73.08,1111122 
DISL,ioos:station:DISL:BSCA:1,2015-06-04T03:00:00Z,30.3288,-87.8293,74.5,1111122 
DISL,ioos:station:DISL:BSCA:1,2015-06-04T03:30:00Z,30.3288,-87.8293,74.0,1111122 
DISL,ioos:station:DISL:BSCA:1,2015-06-04T04:00:00Z,30.3288,-87.8293,78.7,1111122 
DISL,ioos:station:DISL:BSCA:1,2015-06-04T04:30:00Z,30.3288,-87.8293,73.45,1111122 
DISL,ioos:station:DISL:BSCA:1,2015-06-04T05:00:00Z,30.3288,-87.8293,81.8,1111122 
DISL,ioos:station:DISL:BSCA:1,2015-06-04T05:30:00Z,30.3288,-87.8293,87.6,1111122 
DISL,ioos:station:DISL:BSCA:1,2015-06-04T06:00:00Z,30.3288,-87.8293,86.4,1111122 
DISL,ioos:station:DISL:BSCA:1,2015-06-04T06:30:00Z,30.3288,-87.8293,86.5,1111122 
DISL,ioos:station:DISL:BSCA:1,2015-06-04T07:00:00Z,30.3288,-87.8293,87.3,1111122 
DISL,ioos:station:DISL:BSCA:1,2015-06-04T07:30:00Z,30.3288,-87.8293,85.9,1111122 
DISL,ioos:station:DISL:BSCA:1,2015-06-04T08:00:00Z,30.3288,-87.8293,86.9,1111122 
DISL,ioos:station:DISL:BSCA:1,2015-06-04T08:30:00Z,30.3288,-87.8293,86.8,1111122 
DISL,ioos:station:DISL:BSCA:1,2015-06-04T09:00:00Z,30.3288,-87.8293,88.3,1111122 
DISL,ioos:station:DISL:BSCA:1,2015-06-04T09:30:00Z,30.3288,-87.8293,89.4,1111122 
DISL,ioos:station:DISL:BSCA:1,2015-06-04T10:00:00Z,30.3288,-87.8293,90.3,1111122 
DISL,ioos:station:DISL:BSCA:1,2015-06-04T10:30:00Z,30.3288,-87.8293,88.5,1111122 
DISL,ioos:station:DISL:BSCA:1,2015-06-04T11:00:00Z,30.3288,-87.8293,85.8,1111122 
DISL,ioos:station:DISL:BSCA:1,2015-06-04T11:30:00Z,30.3288,-87.8293,90.2,1111122 
DISL,ioos:station:DISL:BSCA:1,2015-06-04T12:00:00Z,30.3288,-87.8293,85.8,1111122 
DISL,ioos:station:DISL:BSCA:1,2015-06-04T12:30:00Z,30.3288,-87.8293,83.5,1111122 
DISL,ioos:station:DISL:BSCA:1,2015-06-04T13:00:00Z,30.3288,-87.8293,82.6,1111122 
DISL,ioos:station:DISL:BSCA:1,2015-06-04T13:30:00Z,30.3288,-87.8293,84.1,1111122 
DISL,ioos:station:DISL:BSCA:1,2015-06-04T14:00:00Z,30.3288,-87.8293,79.71,1111122 
DISL,ioos:station:DISL:BSCA:1,2015-06-04T14:30:00Z,30.3288,-87.8293,75.02,1111122 
DISL,ioos:station:DISL:BSCA:1,2015-06-04T15:00:00Z,30.3288,-87.8293,70.74,1111122 
DISL,ioos:station:DISL:BSCA:1,2015-06-04T15:30:00Z,30.3288,-87.8293,75.18,1111122 
DISL,ioos:station:DISL:BSCA:1,2015-06-04T16:00:00Z,30.3288,-87.8293,75.18,1111122 
DISL,ioos:station:DISL:BSCA:1,2015-06-04T16:30:00Z,30.3288,-87.8293,77.85,1111122 
DISL,ioos:station:DISL:BSCA:1,2015-06-04T17:00:00Z,30.3288,-87.8293,79.55,1111122 
DISL,ioos:station:DISL:BSCA:1,2015-06-04T17:30:00Z,30.3288,-87.8293,78.26,1111122 
DISL,ioos:station:DISL:BSCA:1,2015-06-04T18:00:00Z,30.3288,-87.8293,74.4,1111122 
DISL,ioos:station:DISL:BSCA:1,2015-06-04T18:30:00Z,30.3288,-87.8293,72.88,1111122 
DISL,ioos:station:DISL:BSCA:1,2015-06-04T19:00:00Z,30.3288,-87.8293,75.65,1111122 
DISL,ioos:station:DISL:BSCA:1,2015-06-04T19:30:00Z,30.3288,-87.8293,67.73,1111122 
DISL,ioos:station:DISL:BSCA:1,2015-06-04T20:00:00Z,30.3288,-87.8293,61.87,1111122 
DISL,ioos:station:DISL:BSCA:1,2015-06-04T20:30:00Z,30.3288,-87.8293,55.27,1111122 
DISL,ioos:station:DISL:BSCA:1,2015-06-04T21:00:00Z,30.3288,-87.8293,66.34,1111122 
DISL,ioos:station:DISL:BSCA:1,2015-06-04T21:30:00Z,30.3288,-87.8293,59.4,1111122 
DISL,ioos:station:DISL:BSCA:1,2015-06-04T22:00:00Z,30.3288,-87.8293,62.92,1111122 
DISL,ioos:station:DISL:BSCA:1,2015-06-04T22:30:00Z,30.3288,-87.8293,65.02,1111122 
DISL,ioos:station:DISL:BSCA:1,2015-06-04T23:00:00Z,30.3288,-87.8293,63.66,1111122 
DISL,ioos:station:DISL:BSCA:1,2015-06-04T23:30:00Z,30.3288,-87.8293,64.82,1111122 
DISL,ioos:station:DISL:BSCA:1,2015-06-05T00:00:00Z,30.3288,-87.8293,64.24,1111122 
DISL,ioos:station:DISL:BSCA:1,2015-06-05T00:30:00Z,30.3288,-87.8293,63.49,1111122 
DISL,ioos:station:DISL:BSCA:1,2015-06-05T01:00:00Z,30.3288,-87.8293,65.56,1111122 
DISL,ioos:station:DISL:BSCA:1,2015-06-05T01:30:00Z,30.3288,-87.8293,67.56,1111122 
DISL,ioos:station:DISL:BSCA:1,2015-06-05T02:00:00Z,30.3288,-87.8293,66.1,1111122 
DISL,ioos:station:DISL:BSCA:1,2015-06-05T02:30:00Z,30.3288,-87.8293,72.23,1111122 
DISL,ioos:station:DISL:BSCA:1,2015-06-05T03:00:00Z,30.3288,-87.8293,75.31,1111122 
DISL,ioos:station:DISL:BSCA:1,2015-06-05T03:30:00Z,30.3288,-87.8293,83.5,1111122 
DISL,ioos:station:DISL:BSCA:1,2015-06-05T04:00:00Z,30.3288,-87.8293,82.2,1111122 
DISL,ioos:station:DISL:BSCA:1,2015-06-05T04:30:00Z,30.3288,-87.8293,81.0,1111122 
DISL,ioos:station:DISL:BSCA:1,2015-06-05T05:00:00Z,30.3288,-87.8293,83.0,1111122 
DISL,ioos:station:DISL:BSCA:1,2015-06-05T05:30:00Z,30.3288,-87.8293,85.4,1111122 
DISL,ioos:station:DISL:BSCA:1,2015-06-05T06:00:00Z,30.3288,-87.8293,85.7,1111122 
DISL,ioos:station:DISL:BSCA:1,2015-06-05T06:30:00Z,30.3288,-87.8293,85.1,1111122 
DISL,ioos:station:DISL:BSCA:1,2015-06-05T07:00:00Z,30.3288,-87.8293,81.0,1111122 
DISL,ioos:station:DISL:BSCA:1,2015-06-05T07:30:00Z,30.3288,-87.8293,90.1,1111122 
DISL,ioos:station:DISL:BSCA:1,2015-06-05T08:00:00Z,30.3288,-87.8293,90.4,1111122 
DISL,ioos:station:DISL:BSCA:1,2015-06-05T08:30:00Z,30.3288,-87.8293,92.3,1111122 
DISL,ioos:station:DISL:BSCA:1,2015-06-05T09:00:00Z,30.3288,-87.8293,93.7,1111122 
DISL,ioos:station:DISL:BSCA:1,2015-06-05T09:30:00Z,30.3288,-87.8293,93.3,1111122 
DISL,ioos:station:DISL:BSCA:1,2015-06-05T10:00:00Z,30.3288,-87.8293,93.5,1111122 
DISL,ioos:station:DISL:BSCA:1,2015-06-05T10:30:00Z,30.3288,-87.8293,94.8,1111122 
DISL,ioos:station:DISL:BSCA:1,2015-06-05T11:00:00Z,30.3288,-87.8293,95.6,1111122 
DISL,ioos:station:DISL:BSCA:1,2015-06-05T11:30:00Z,30.3288,-87.8293,95.8,1111122 
DISL,ioos:station:DISL:BSCA:1,2015-06-05T12:00:00Z,30.3288,-87.8293,96.7,1111122 
DISL,ioos:station:DISL:BSCA:1,2015-06-05T12:30:00Z,30.3288,-87.8293,93.3,1111122 
DISL,ioos:station:DISL:BSCA:1,2015-06-05T13:00:00Z,30.3288,-87.8293,91.6,1111122 
DISL,ioos:station:DISL:BSCA:1,2015-06-05T13:30:00Z,30.3288,-87.8293,86.1,1111122 
DISL,ioos:station:DISL:BSCA:1,2015-06-05T14:00:00Z,30.3288,-87.8293,80.6,1111122 
DISL,ioos:station:DISL:BSCA:1,2015-06-05T14:30:00Z,30.3288,-87.8293,74.95,1111122 
DISL,ioos:station:DISL:BSCA:1,2015-06-05T15:00:00Z,30.3288,-87.8293,71.28,1111122 
DISL,ioos:station:DISL:BSCA:1,2015-06-05T15:30:00Z,30.3288,-87.8293,69.49,1111122 
DISL,ioos:station:DISL:BSCA:1,2015-06-05T16:00:00Z,30.3288,-87.8293,63.33,1111122 
DISL,ioos:station:DISL:BSCA:1,2015-06-05T16:30:00Z,30.3288,-87.8293,58.65,1111122 
DISL,ioos:station:DISL:BSCA:1,2015-06-05T17:00:00Z,30.3288,-87.8293,54.08,1111122 
DISL,ioos:station:DISL:BSCA:1,2015-06-05T17:30:00Z,30.3288,-87.8293,70.91,1111122 
DISL,ioos:station:DISL:BSCA:1,2015-06-05T18:00:00Z,30.3288,-87.8293,64.21,1111122 
DISL,ioos:station:DISL:BSCA:1,2015-06-05T18:30:00Z,30.3288,-87.8293,56.76,1111122 
DISL,ioos:station:DISL:BSCA:1,2015-06-05T19:00:00Z,30.3288,-87.8293,59.19,1111122 
DISL,ioos:station:DISL:BSCA:1,2015-06-05T19:30:00Z,30.3288,-87.8293,54.28,1111122 
DISL,ioos:station:DISL:BSCA:1,2015-06-05T20:00:00Z,30.3288,-87.8293,54.08,1111122 
DISL,ioos:station:DISL:BSCA:1,2015-06-05T20:30:00Z,30.3288,-87.8293,56.15,1111122 
DISL,ioos:station:DISL:BSCA:1,2015-06-05T21:00:00Z,30.3288,-87.8293,53.94,1111122 
DISL,ioos:station:DISL:BSCA:1,2015-06-05T21:30:00Z,30.3288,-87.8293,55.84,1111122 
DISL,ioos:station:DISL:BSCA:1,2015-06-05T22:00:00Z,30.3288,-87.8293,45.75,1111122 
DISL,ioos:station:DISL:BSCA:1,2015-06-05T22:30:00Z,30.3288,-87.8293,43.75,1111122 
DISL,ioos:station:DISL:BSCA:1,2015-06-05T23:00:00Z,30.3288,-87.8293,42.26,1111122 
DISL,ioos:station:DISL:BSCA:1,2015-06-05T23:30:00Z,30.3288,-87.8293,49.74,1111122 
DISL,ioos:station:DISL:BSCA:1,2015-06-06T00:00:00Z,30.3288,-87.8293,50.83,1111122 
DISL,ioos:station:DISL:BSCA:1,2015-06-06T00:30:00Z,30.3288,-87.8293,57.06,1111122 
DISL,ioos:station:DISL:BSCA:1,2015-06-06T01:00:00Z,30.3288,-87.8293,56.42,1111122 
DISL,ioos:station:DISL:BSCA:1,2015-06-06T01:30:00Z,30.3288,-87.8293,64.71,1111122 
DISL,ioos:station:DISL:BSCA:1,2015-06-06T02:00:00Z,30.3288,-87.8293,67.25,1111122 
DISL,ioos:station:DISL:BSCA:1,2015-06-06T02:30:00Z,30.3288,-87.8293,67.36,1111122 
DISL,ioos:station:DISL:BSCA:1,2015-06-06T03:00:00Z,30.3288,-87.8293,72.43,1111122 
DISL,ioos:station:DISL:BSCA:1,2015-06-06T03:30:00Z,30.3288,-87.8293,71.32,1111122 
DISL,ioos:station:DISL:BSCA:1,2015-06-06T04:00:00Z,30.3288,-87.8293,68.51,1111122 
DISL,ioos:station:DISL:BSCA:1,2015-06-06T04:30:00Z,30.3288,-87.8293,71.62,1111122 
DISL,ioos:station:DISL:BSCA:1,2015-06-06T05:00:00Z,30.3288,-87.8293,77.65,1111122 
DISL,ioos:station:DISL:BSCA:1,2015-06-06T05:30:00Z,30.3288,-87.8293,81.6,1111122 
DISL,ioos:station:DISL:BSCA:1,2015-06-06T06:00:00Z,30.3288,-87.8293,70.61,1111122 
DISL,ioos:station:DISL:BSCA:1,2015-06-06T06:30:00Z,30.3288,-87.8293,69.8,1111122 
DISL,ioos:station:DISL:BSCA:1,2015-06-06T07:00:00Z,30.3288,-87.8293,70.25,1111122 
DISL,ioos:station:DISL:BSCA:1,2015-06-06T07:30:00Z,30.3288,-87.8293,70.97,1111122 
DISL,ioos:station:DISL:BSCA:1,2015-06-06T08:00:00Z,30.3288,-87.8293,72.49,1111122 
DISL,ioos:station:DISL:BSCA:1,2015-06-06T08:30:00Z,30.3288,-87.8293,75.14,1111122 
DISL,ioos:station:DISL:BSCA:1,2015-06-06T09:00:00Z,30.3288,-87.8293,72.63,1111122 
DISL,ioos:station:DISL:BSCA:1,2015-06-06T09:30:00Z,30.3288,-87.8293,73.78,1111122 
DISL,ioos:station:DISL:BSCA:1,2015-06-06T10:00:00Z,30.3288,-87.8293,76.42,1111122 
DISL,ioos:station:DISL:BSCA:1,2015-06-06T10:30:00Z,30.3288,-87.8293,81.6,1111122 
DISL,ioos:station:DISL:BSCA:1,2015-06-06T11:00:00Z,30.3288,-87.8293,73.1,1111122 
DISL,ioos:station:DISL:BSCA:1,2015-06-06T11:30:00Z,30.3288,-87.8293,76.15,1111122 
DISL,ioos:station:DISL:BSCA:1,2015-06-06T12:00:00Z,30.3288,-87.8293,77.71,1111122 
DISL,ioos:station:DISL:BSCA:1,2015-06-06T12:30:00Z,30.3288,-87.8293,77.17,1111122 
DISL,ioos:station:DISL:BSCA:1,2015-06-06T13:00:00Z,30.3288,-87.8293,72.53,1111122 
DISL,ioos:station:DISL:BSCA:1,2015-06-06T13:30:00Z,30.3288,-87.8293,71.88,1111122 
DISL,ioos:station:DISL:BSCA:1,2015-06-06T14:00:00Z,30.3288,-87.8293,67.6,1111122 
DISL,ioos:station:DISL:BSCA:1,2015-06-06T14:30:00Z,30.3288,-87.8293,64.17,1111122 
DISL,ioos:station:DISL:BSCA:1,2015-06-06T15:00:00Z,30.3288,-87.8293,69.42,1111122 
DISL,ioos:station:DISL:BSCA:1,2015-06-06T15:30:00Z,30.3288,-87.8293,67.22,1111122 
DISL,ioos:station:DISL:BSCA:1,2015-06-06T16:00:00Z,30.3288,-87.8293,74.6,1111122 
DISL,ioos:station:DISL:BSCA:1,2015-06-06T16:30:00Z,30.3288,-87.8293,73.82,1111122 
DISL,ioos:station:DISL:BSCA:1,2015-06-06T17:00:00Z,30.3288,-87.8293,75.69,1111122 
DISL,ioos:station:DISL:BSCA:1,2015-06-06T17:30:00Z,30.3288,-87.8293,72.3,1111122 
DISL,ioos:station:DISL:BSCA:1,2015-06-06T18:00:00Z,30.3288,-87.8293,63.02,1111122 
DISL,ioos:station:DISL:BSCA:1,2015-06-06T18:30:00Z,30.3288,-87.8293,59.43,1111122 
DISL,ioos:station:DISL:BSCA:1,2015-06-06T19:00:00Z,30.3288,-87.8293,59.53,1111122 
DISL,ioos:station:DISL:BSCA:1,2015-06-06T19:30:00Z,30.3288,-87.8293,53.37,1111122 
DISL,ioos:station:DISL:BSCA:1,2015-06-06T20:00:00Z,30.3288,-87.8293,61.06,1111122 
DISL,ioos:station:DISL:BSCA:1,2015-06-06T20:30:00Z,30.3288,-87.8293,57.84,1111122 
DISL,ioos:station:DISL:BSCA:1,2015-06-06T21:00:00Z,30.3288,-87.8293,56.76,1111122 
DISL,ioos:station:DISL:BSCA:1,2015-06-06T21:30:00Z,30.3288,-87.8293,57.97,1111122 
DISL,ioos:station:DISL:BSCA:1,2015-06-06T22:00:00Z,30.3288,-87.8293,69.9,1111122 
DISL,ioos:station:DISL:BSCA:1,2015-06-06T22:30:00Z,30.3288,-87.8293,76.63,1111122 
DISL,ioos:station:DISL:BSCA:1,2015-06-06T23:00:00Z,30.3288,-87.8293,67.52,1111122 
DISL,ioos:station:DISL:BSCA:1,2015-06-06T23:30:00Z,30.3288,-87.8293,71.28,1111122 
DISL,ioos:station:DISL:BSCA:1,2015-06-07T00:00:00Z,30.3288,-87.8293,73.04,1111122 
DISL,ioos:station:DISL:BSCA:1,2015-06-07T00:30:00Z,30.3288,-87.8293,62.41,1111122 